SCP
0 0 0 0 0 0 0 0 0 0 0 0 0 0 0 0 0 0 0 0 0 0 0 0 0 0 0 0 0 0 0 0 0 0 0 0 0 0 0 0 0 0 0 0 0 0 0 0 0
0 0 0 0 0 0 0 0 0 0 0 0 0 0 0 0 0 0 0 0 0 0 0 0 0 0 0 0 0 0 0 0 0 0 0 0 0 0 0 0 0 0 0 0 0 0 0 0 0
0 0 0 0 0 0 0 0 0 0 0 0 0 0 0 0 0 0 0 0 0 0 0 0 0 0 0 0 0 0 0 0 0 0 0 0 0 0 0 0 0 0 0 0 0 0 0 0 0
0 0 0 0 0 -0 -0 0 0 0 0 0 0 0 0 0 0 0 0 0 0 0 0 0 0 0 0 0 0 0 0 0 0 0 0 0 0 0 0 0 0 0 0 0 0 0 0 0 0
0 0 0 0 0 -0 -0 0 0 0 0 0 0 0 0 0 0 0 0 0 0 0 0 0 0 0 0 0 0 0 0 0 0 0 0 0 0 0 0 0 0 0 0 0 0 0 0 0 0
0 0 -0 -0 0 0 0 0 0 0 0 0 0 0 0 0 0 0 0 0 0 0 0 0 0 0 0 0 0 0 0 0 0 0 0 0 0 0 0 0 0 0 0 0 0 0 0 0 0
0 -0 -0 -0 0 0 0 0 0 0 0 0 0 0 0 1 1 1 1 0 0 0 0 0 0 0 0 0 0 0 0 0 0 0 0 0 0 0 0 0 0 0 0 0 0 0 0 0 0
-0 -0 -0 0 0 0 0 0 0 0 0 0 0 0 1 1 1 1 1 1 0 0 0 1 1 0 0 0 0 0 0 0 0 0 0 0 0 0 0 0 0 0 0 0 0 0 0 0 0
-0 -0 -0 0 0 0 0 0 0 0 0 0 0 1 1 1 1 1 1 1 1 1 1 1 1 0 0 0 0 0 0 0 0 0 0 0 0 0 0 0 0 0 0 0 0 0 0 0 0
-0 -0 -0 0 0 0 0 0 0 0 0 0 1 1 1 2 2 2 2 1 1 1 1 1 1 1 1 1 1 0 0 0 0 0 0 0 0 0 0 0 0 0 0 0 0 0 0 0 0
-0 -0 -0 0 0 0 0 0 0 0 0 0 1 1 2 2 2 2 2 2 1 1 1 1 1 1 1 1 1 1 0 0 0 0 0 0 0 0 0 0 0 0 0 0 0 0 0 0 0
-0 -0 0 0 0 0 0 0 0 0 0 0 1 1 2 2 2 2 2 2 2 2 1 1 1 1 1 1 1 1 1 0 0 0 0 0 0 0 0 0 0 0 0 0 0 0 0 0 0
-0 0 0 0 0 0 0 0 0 0 0 0 1 1 2 2 2 2 2 2 2 2 1 1 1 1 1 1 1 1 1 0 0 0 0 0 0 0 0 0 0 0 0 0 0 0 0 0 0
-0 0 0 0 0 0 0 0 0 0 0 0 1 1 2 2 2 2 2 2 2 2 1 1 1 1 1 1 1 1 1 1 0 0 0 0 0 0 0 0 0 0 0 0 0 0 0 0 0
0 0 0 0 0 0 0 0 0 0 0 1 1 1 1 2 2 2 2 2 2 1 1 1 1 1 1 1 1 1 1 1 0 0 0 0 0 0 0 0 0 0 0 0 0 0 0 0 0
0 0 0 0 0 0 0 0 0 0 0 1 1 1 1 2 2 2 1 1 1 1 1 1 1 1 1 1 1 1 1 1 0 0 0 0 0 0 0 0 0 0 0 0 0 0 0 0 0
0 0 0 0 0 0 0 0 0 0 0 1 1 1 1 1 1 1 1 1 1 1 1 1 1 1 1 1 1 1 1 1 0 0 0 0 0 0 0 0 0 0 0 0 0 0 0 0 0
0 0 0 0 0 0 0 0 0 0 0 1 1 1 1 1 1 1 1 1 1 1 1 1 1 1 1 1 1 1 1 1 0 0 0 0 0 0 0 0 0 0 0 0 0 0 0 0 0
0 0 0 0 0 0 0 0 0 0 0 0 1 1 1 1 1 1 1 1 1 0 0 0 0 0 1 1 1 1 1 1 0 0 0 0 0 0 0 0 0 0 0 0 0 0 0 0 0
0 0 0 0 0 0 0 0 0 0 0 0 1 1 1 1 1 1 1 1 0 0 0 0 0 0 1 1 1 1 1 0 0 0 0 0 0 0 0 0 0 0 0 0 0 0 0 0 0
0 0 0 0 0 0 0 0 0 0 0 0 0 0 1 1 1 1 0 0 0 0 0 0 0 0 0 1 1 1 1 0 0 0 0 0 0 0 0 0 0 0 0 0 0 0 0 0 0
0 0 0 0 0 0 0 0 0 0 0 0 0 0 0 0 1 0 0 0 0 0 0 0 0 0 0 1 0 0 0 0 0 0 0 0 0 0 0 0 0 0 -0 -0 0 0 0 0 0
0 0 0 0 0 0 0 0 0 0 0 0 0 0 0 0 0 0 0 0 0 0 0 0 0 0 0 0 0 0 0 0 0 0 0 0 0 0 0 0 0 0 -0 0 0 0 0 0 0
0 0 0 0 0 0 0 0 0 0 0 0 0 0 0 0 0 0 0 0 0 0 0 0 0 0 0 0 0 0 0 0 0 0 0 0 0 0 0 0 0 0 0 0 0 0 0 0 0
0 0 0 0 0 0 0 0 0 0 0 0 0 0 0 0 0 0 0 0 0 0 0 0 0 0 0 0 0 0 0 0 0 0 0 0 0 0 0 0 0 0 0 0 0 0 0 0 0
0 0 0 0 0 0 0 0 0 0 0 0 0 0 0 0 0 0 0 0 0 0 0 0 0 0 0 0 0 0 0 0 0 0 0 0 0 0 0 0 0 0 0 0 0 0 0 0 0
0 0 0 0 0 0 0 0 0 0 0 0 0 0 0 0 0 0 0 0 0 0 0 0 0 0 0 0 0 0 0 0 0 0 0 0 0 0 0 0 0 0 0 0 0 0 0 0 0
0 0 0 0 0 0 0 0 0 0 0 0 0 0 0 0 0 0 0 0 0 0 0 0 0 0 0 0 0 0 0 0 0 0 0 0 0 0 0 0 0 0 0 0 0 0 0 0 0
0 0 0 0 0 0 0 0 0 0 0 0 0 0 0 0 0 0 0 0 0 0 0 0 0 0 0 0 0 0 0 0 0 0 0 0 0 0 0 0 0 0 0 0 0 0 0 0 0
0 0 0 0 0 0 0 0 0 0 0 0 0 0 0 0 0 0 0 0 0 0 0 0 0 0 0 0 0 0 0 0 0 0 0 0 0 0 0 0 0 0 0 0 0 0 0 0 0
Wind_Speed
10 7 5 5 8 4 3 4 2 2 2 2 1 1 2 3 4 6 7 17 20 20 20 19 16 15 15 15 15 15 15 15 14 14 13 12 12 11 11 10 10 11 11 11 11 11 11 11 11
6 5 6 6 7 1 5 3 1 2 3 2 3 2 2 1 5 7 10 17 21 20 19 18 18 16 16 15 15 15 15 14 14 13 13 12 12 11 11 11 11 11 11 11 11 10 10 10 10
5 6 6 6 3 2 4 3 1 1 2 3 2 1 2 4 5 7 11 20 20 19 18 18 19 17 16 16 15 15 15 14 14 13 13 12 11 11 11 11 11 10 10 10 10 10 10 9 9
5 6 6 7 2 1 2 1 1 2 4 4 3 2 4 5 3 8 17 21 20 19 18 20 19 18 17 16 15 15 15 14 13 13 12 12 11 11 11 10 10 10 10 10 10 9 9 9 8
6 6 8 5 1 0 2 4 4 4 3 3 5 1 5 5 6 13 19 21 20 18 17 20 19 18 17 16 15 15 14 14 13 12 11 11 11 11 10 10 10 10 10 10 9 8 8 7 7
6 6 7 2 3 1 1 2 5 5 3 3 4 4 5 7 10 15 19 19 19 18 18 19 19 18 17 16 15 15 14 14 13 12 11 11 11 10 10 10 10 10 9 9 8 7 7 6 6
8 6 5 2 1 2 1 1 4 4 4 5 4 3 7 9 12 16 17 17 17 17 17 18 18 17 17 15 15 15 14 13 13 12 11 11 10 10 10 9 9 9 9 8 7 7 6 6 5
6 6 5 4 2 2 2 2 2 5 4 2 5 5 5 13 15 17 16 16 16 16 16 16 16 16 15 15 15 15 14 13 12 12 11 11 10 10 9 9 9 8 8 7 6 6 5 5 5
7 8 5 2 1 1 1 4 3 3 4 4 5 1 7 18 18 18 16 15 15 15 14 15 15 15 14 14 15 15 14 13 12 11 11 10 9 9 8 9 8 7 7 6 6 5 4 4 6
7 8 1 2 4 5 6 7 5 5 7 7 6 6 12 19 20 20 20 19 18 16 15 13 14 13 13 11 12 10 10 11 9 9 10 7 5 4 6 10 7 7 7 6 5 4 5 7 5
7 7 4 5 6 8 9 8 6 9 8 7 7 11 16 19 19 19 19 19 18 17 15 14 13 13 12 9 9 7 6 7 8 9 8 5 5 5 5 5 6 6 6 4 6 5 2 1 2
7 8 8 8 9 10 10 8 7 9 7 4 3 10 17 20 20 20 19 18 17 17 16 14 14 12 10 9 8 8 7 6 6 7 8 6 4 4 4 3 3 3 2 2 1 1 2 1 1
10 8 8 9 11 9 9 9 7 6 4 3 3 11 16 18 18 16 16 16 16 16 15 13 13 12 10 8 7 8 7 7 7 7 6 6 5 4 4 2 2 1 2 2 2 1 2 1 2
6 9 11 11 8 5 7 6 6 3 2 1 5 10 13 15 16 16 16 16 16 16 16 14 14 12 11 9 7 7 7 6 7 6 7 6 4 4 4 3 2 1 1 1 1 1 2 2 1
8 11 11 6 4 3 7 7 3 1 1 2 5 8 10 12 14 15 15 15 15 15 15 14 13 13 12 10 9 7 7 7 6 6 7 7 6 5 4 3 3 2 2 2 2 2 2 2 3
10 11 9 4 2 2 8 6 4 1 2 3 5 7 9 11 13 12 13 13 13 13 14 14 12 13 12 9 8 6 6 7 6 6 6 7 6 5 4 3 3 2 2 2 2 2 2 2 2
11 10 7 3 1 3 7 7 2 0 3 3 5 7 8 10 11 11 12 12 12 12 13 14 14 13 13 11 8 7 6 6 6 6 6 7 6 6 4 3 3 4 3 2 2 2 2 2 2
6 7 6 4 2 6 7 6 2 1 3 3 5 7 8 9 10 11 11 11 11 11 12 13 14 13 12 9 7 6 7 6 6 6 6 7 6 6 5 4 4 4 3 3 1 2 1 1 2
7 9 8 5 4 7 7 6 3 2 3 4 5 7 7 8 9 10 10 10 11 11 11 12 13 13 11 9 9 8 7 6 6 6 7 8 7 7 5 4 5 4 3 2 4 3 5 3 2
10 11 10 5 2 6 7 8 2 2 3 3 5 6 7 8 9 10 10 11 11 12 12 12 13 13 13 10 8 6 6 5 5 5 7 8 7 7 6 5 5 4 3 4 3 3 3 3 3
12 11 9 8 6 6 8 8 4 3 4 4 5 6 7 8 10 11 11 11 12 12 13 12 13 13 13 12 8 7 6 5 6 7 6 7 8 7 5 6 4 4 5 4 4 4 5 3 4
12 8 8 8 10 6 4 9 1 3 4 5 5 7 8 9 9 10 11 11 12 12 12 12 13 13 13 13 11 12 9 8 8 7 6 7 7 7 7 6 5 5 4 4 5 4 3 4 4
8 3 7 8 9 10 7 9 2 3 4 4 5 6 7 8 9 10 11 11 11 11 12 11 12 13 13 13 13 12 10 8 7 7 8 8 7 7 7 7 6 5 4 4 2 3 4 4 4
5 6 7 8 10 11 6 8 5 0 2 2 5 7 7 7 8 9 10 10 10 11 11 11 12 12 13 13 13 13 12 10 10 10 9 8 7 7 8 7 6 6 4 5 4 4 4 3 2
10 10 9 10 9 7 2 7 4 2 1 1 4 7 8 8 9 9 10 10 10 11 12 11 12 12 13 13 13 12 12 12 12 11 10 9 8 7 8 8 7 6 5 5 5 5 3 4 4
13 13 11 9 8 5 5 6 2 2 2 2 4 7 9 9 9 10 10 10 10 12 12 12 13 12 12 13 12 11 11 9 9 10 9 9 7 7 9 8 8 7 7 6 5 5 5 4 4
11 12 12 12 11 10 6 4 3 4 5 6 7 8 10 10 10 10 11 11 11 11 12 12 12 12 12 12 11 10 10 9 9 10 9 8 6 7 9 9 8 8 7 6 6 5 5 5 6
10 8 7 10 10 10 8 7 3 4 5 7 8 9 10 11 11 11 11 11 11 11 11 11 12 11 11 11 10 9 10 10 9 9 9 8 8 7 9 9 9 8 8 7 7 6 6 6 6
9 10 9 9 9 10 9 3 2 2 4 6 8 9 10 11 12 11 10 11 11 11 11 11 11 12 11 11 10 9 9 9 9 9 10 9 9 9 9 10 9 9 9 8 8 8 6 7 7
9 11 11 10 10 10 10 5 5 1 3 5 7 8 9 11 12 12 12 11 11 12 12 12 12 12 12 11 11 10 9 9 9 10 10 10 9 10 10 10 10 9 9 9 10 9 9 9 8
Wind_Direction
195 210 235 244 241 224 68 70 33 62 76 79 129 259 321 344 351 48 109 149 148 148 143 150 150 147 143 139 137 136 135 134 133 133 132 130 127 124 120 116 111 107 104 101 99 98 98 97 98
197 214 235 242 257 166 95 80 59 41 55 128 177 220 260 75 53 94 138 148 150 148 147 152 148 148 144 141 139 138 137 136 134 133 132 129 125 122 118 114 109 106 104 102 100 100 100 100 100
200 235 260 254 258 3 67 81 33 85 160 210 191 231 332 48 102 131 144 151 152 148 147 143 151 149 147 144 142 140 139 137 136 134 131 129 126 122 117 114 111 109 107 104 102 101 101 101 101
218 226 238 250 230 44 342 3 294 203 181 213 233 176 101 54 98 133 146 154 151 149 150 145 154 151 149 146 144 142 140 138 137 135 132 129 126 121 117 115 113 111 108 105 102 101 101 102 102
240 252 240 225 198 94 278 297 265 242 213 201 223 214 108 88 108 136 151 155 153 154 151 147 155 152 151 149 147 145 142 140 138 136 133 128 124 121 118 115 113 111 108 105 102 98 98 99 101
233 244 244 211 113 128 247 255 240 243 230 205 219 225 103 116 137 147 155 157 157 156 153 146 154 154 153 152 151 148 145 143 140 137 133 128 123 120 118 115 114 111 108 106 102 98 95 93 94
261 259 260 269 132 150 64 304 253 264 246 220 219 216 124 142 144 150 155 160 159 159 155 153 158 158 156 155 154 150 148 144 141 138 135 130 126 123 120 118 116 114 113 110 105 99 95 90 91
272 265 230 210 213 119 74 283 284 275 262 216 215 231 150 147 149 151 156 162 164 164 160 159 161 159 161 159 156 151 148 146 143 142 139 135 134 130 129 136 120 118 116 111 105 101 97 97 100
253 251 225 191 242 38 1 292 287 269 233 199 214 286 103 142 152 154 159 165 168 168 164 165 161 163 165 160 153 156 152 149 152 151 146 160 159 144 154 110 118 122 119 110 104 100 106 135 137
238 250 234 349 312 315 311 289 282 239 227 215 199 143 138 153 161 165 168 171 172 173 171 169 164 163 166 159 155 163 162 157 171 153 159 165 139 141 125 118 124 123 124 127 116 124 181 223 166
235 263 305 291 292 299 293 285 266 255 252 242 217 174 165 168 171 174 176 175 173 172 172 171 166 166 168 158 161 164 159 158 165 155 158 149 154 152 145 149 147 148 163 156 144 189 198 176 76
247 261 272 280 294 291 290 286 268 257 282 324 244 175 172 177 179 181 178 176 173 174 175 173 166 170 170 164 163 165 162 163 160 156 168 159 163 156 142 155 142 163 151 128 174 151 116 97 137
240 266 274 278 283 289 283 272 271 268 287 290 192 169 180 183 181 181 176 175 173 174 175 173 169 170 169 167 173 169 165 165 157 158 167 166 166 162 147 140 150 182 140 164 188 160 130 172 172
267 279 280 278 281 270 274 266 241 273 314 232 171 173 185 183 178 176 176 177 178 178 177 173 173 172 172 172 174 168 167 164 160 163 163 174 168 158 162 166 164 162 177 97 202 140 171 187 138
273 272 260 235 253 268 281 242 216 338 262 198 172 171 180 179 177 179 177 180 181 178 177 174 174 174 177 176 177 173 170 167 167 161 162 173 174 164 175 162 176 156 140 155 186 168 190 179 166
246 249 241 180 249 280 277 280 86 101 222 200 174 169 174 178 182 181 180 180 179 177 177 177 176 174 175 176 178 174 174 167 168 165 163 173 169 168 183 170 165 155 179 180 158 212 198 164 172
225 238 248 204 155 308 280 296 52 323 229 203 182 177 178 178 184 181 182 182 179 179 178 178 177 176 176 172 173 176 174 174 171 168 168 168 171 172 186 175 143 186 186 190 205 143 228 166 173
235 250 249 267 346 308 290 299 314 241 235 206 186 183 183 186 186 182 181 181 178 181 181 181 179 178 175 170 168 171 173 174 174 170 168 168 170 176 185 175 169 198 185 183 166 144 186 196 196
276 273 272 287 333 301 298 304 296 229 223 203 192 186 186 187 178 175 177 180 177 181 182 182 181 180 174 172 175 173 172 171 173 171 167 173 172 171 193 181 170 207 181 191 184 190 171 189 183
251 257 261 260 312 294 299 292 274 220 225 216 206 195 189 181 174 174 178 179 184 184 183 183 185 181 180 176 173 172 161 167 167 169 166 176 176 180 188 187 189 186 172 187 189 213 221 177 203
240 251 269 290 297 249 280 266 198 181 197 200 203 200 191 186 182 180 185 186 184 186 187 185 185 181 181 172 161 155 154 166 167 170 172 180 182 185 185 186 199 183 204 179 196 202 219 204 193
241 245 268 275 275 276 294 298 232 185 210 199 195 193 189 183 184 184 187 187 186 187 188 187 183 180 179 173 172 174 180 181 177 175 169 173 186 187 185 188 189 197 199 168 200 189 209 225 205
248 267 262 267 272 277 254 278 304 182 235 199 184 184 185 181 183 184 186 186 185 184 183 183 181 179 178 179 180 184 187 182 168 170 165 178 182 191 189 186 188 192 200 182 201 169 227 223 236
220 224 234 245 255 258 268 282 291 300 285 193 172 175 179 179 179 178 178 179 183 180 178 178 177 178 178 181 184 189 185 176 169 175 173 183 179 187 187 188 190 196 195 181 192 196 200 239 251
215 232 234 230 231 250 204 264 294 20 358 224 176 170 172 174 173 172 175 176 177 178 177 176 178 178 179 182 185 189 185 180 180 182 182 187 183 185 182 189 192 196 192 192 194 199 214 207 209
217 235 248 263 264 266 195 252 322 87 124 165 171 163 166 172 172 173 175 176 177 178 175 175 177 177 177 181 183 186 186 187 187 190 186 191 193 187 177 187 191 196 194 196 194 209 201 205 217
221 230 251 262 268 274 264 252 217 182 187 176 172 168 171 172 172 172 173 176 176 177 175 175 175 173 176 177 179 184 187 194 189 185 194 193 193 184 180 188 193 196 198 201 201 218 209 206 220
249 242 228 248 258 263 255 252 257 192 193 173 174 176 173 172 172 170 172 173 173 172 170 173 173 173 176 176 179 180 186 192 190 193 197 197 193 190 184 191 196 198 199 201 210 215 209 217 222
201 219 235 249 261 270 273 269 73 196 193 183 174 172 173 173 170 168 168 169 169 169 168 172 172 172 177 181 182 183 185 189 191 196 200 197 194 193 195 197 199 200 201 203 209 225 211 219 220
240 235 228 242 246 251 271 276 98 166 201 182 169 162 169 170 167 165 164 164 168 171 173 174 176 176 179 181 181 184 185 189 195 198 200 195 195 197 199 201 203 205 206 206 210 219 218 220 222